AGJ920 GOBD-DIAP

Flight info

Callsign AGJ920
Flight time N/A
Altitude 360
Route BD504 ERIDI KOMAB BADIA DIRNO ARBAL ONADA NANAN TUVEM PIVK1L
Aircraft B788/H-SDE3FG/L

Departure

Time N/A
Airport Blaise Diagne International Airport (GOBD)

Arrival

Time 2026-05-01 11:38
Airport Félix-Houphouët-Boigny International Airport (DIAP)
Time Latitude Longitude Altitude Speed Heading
2026-05-01 10:35 7.79161 -7.44460 35965 ft 475 kts 124°
2026-05-01 10:35 7.75390 -7.38982 35964 ft 476 kts 125°
2026-05-01 10:36 7.69715 -7.30740 35965 ft 476 kts 125°
2026-05-01 10:37 7.65940 -7.25261 35967 ft 475 kts 125°
2026-05-01 10:37 7.60296 -7.17073 35958 ft 475 kts 125°
2026-05-01 10:38 7.56531 -7.11611 35963 ft 475 kts 125°
2026-05-01 10:38 7.52755 -7.06139 35958 ft 475 kts 125°
2026-05-01 10:39 7.48980 -7.00667 35959 ft 474 kts 125°
2026-05-01 10:39 7.45231 -6.95237 35957 ft 474 kts 125°
2026-05-01 10:40 7.41477 -6.89800 35957 ft 474 kts 125°
2026-05-01 10:40 7.37705 -6.84340 35963 ft 474 kts 125°
2026-05-01 10:41 7.34546 -6.79768 35956 ft 474 kts 125°
2026-05-01 10:42 7.28917 -6.71625 35959 ft 474 kts 124°
2026-05-01 10:42 7.25146 -6.66171 35961 ft 474 kts 124°
2026-05-01 10:43 7.21390 -6.60742 35958 ft 474 kts 124°
2026-05-01 10:43 7.17608 -6.55277 35970 ft 474 kts 124°
2026-05-01 10:44 7.13836 -6.49828 35966 ft 474 kts 124°
2026-05-01 10:44 7.10067 -6.44386 35963 ft 474 kts 124°
2026-05-01 10:45 7.06321 -6.38978 35963 ft 473 kts 124°
2026-05-01 10:45 7.02568 -6.33562 35963 ft 473 kts 124°
2026-05-01 10:46 6.98791 -6.28112 35965 ft 473 kts 124°
2026-05-01 10:46 6.95020 -6.22674 35964 ft 473 kts 124°
2026-05-01 10:47 6.91259 -6.17253 35965 ft 472 kts 124°
2026-05-01 10:47 6.88745 -6.13629 35966 ft 472 kts 124°
2026-05-01 10:48 6.83739 -6.06417 35966 ft 471 kts 124°
2026-05-01 10:48 6.80011 -6.01047 35973 ft 471 kts 124°
2026-05-01 10:49 6.76258 -5.95643 35969 ft 471 kts 124°
2026-05-01 10:49 6.72439 -5.90288 35967 ft 470 kts 126°
2026-05-01 10:50 6.68572 -5.84984 35964 ft 470 kts 125°
2026-05-01 10:50 6.64744 -5.79648 35971 ft 470 kts 125°
2026-05-01 10:51 6.60890 -5.74338 35963 ft 469 kts 125°
2026-05-01 10:51 6.57060 -5.69024 35963 ft 469 kts 125°
2026-05-01 10:52 6.53214 -5.63712 35966 ft 469 kts 125°
2026-05-01 10:52 6.49378 -5.58403 35958 ft 469 kts 125°
2026-05-01 10:53 6.45567 -5.53137 35962 ft 469 kts 125°
2026-05-01 10:53 6.41735 -5.47839 35958 ft 468 kts 125°
2026-05-01 10:54 6.37895 -5.42534 35958 ft 468 kts 125°
2026-05-01 10:54 6.34069 -5.37249 35955 ft 467 kts 125°
2026-05-01 10:55 6.30247 -5.31972 35953 ft 467 kts 125°
2026-05-01 10:55 6.26422 -5.26692 35952 ft 467 kts 125°
2026-05-01 10:56 6.22595 -5.21410 35950 ft 467 kts 125°
2026-05-01 10:56 6.18767 -5.16129 35951 ft 466 kts 125°
2026-05-01 10:57 6.14950 -5.10864 35950 ft 466 kts 125°
2026-05-01 10:57 6.11156 -5.05632 35950 ft 466 kts 125°
2026-05-01 10:58 6.07331 -5.00360 35948 ft 466 kts 125°
2026-05-01 10:58 6.03518 -4.95105 35944 ft 465 kts 125°
2026-05-01 10:59 5.99711 -4.89859 35939 ft 464 kts 125°
2026-05-01 10:59 5.95904 -4.84616 35941 ft 464 kts 125°
2026-05-01 11:00 5.92105 -4.79385 35667 ft 470 kts 125°
2026-05-01 11:00 5.90163 -4.76710 35139 ft 472 kts 125°
2026-05-01 11:00 5.88229 -4.74049 34576 ft 473 kts 125°
2026-05-01 11:00 5.86273 -4.71357 34040 ft 473 kts 125°
2026-05-01 11:01 5.84351 -4.68711 33325 ft 475 kts 125°
2026-05-01 11:01 5.82391 -4.66014 32587 ft 478 kts 125°
2026-05-01 11:01 5.80431 -4.63317 31872 ft 480 kts 125°
2026-05-01 11:01 5.78444 -4.60584 31162 ft 482 kts 125°
2026-05-01 11:02 5.76466 -4.57864 30490 ft 484 kts 125°
2026-05-01 11:02 5.74496 -4.55154 29783 ft 485 kts 125°
2026-05-01 11:02 5.72492 -4.52399 29013 ft 486 kts 125°
2026-05-01 11:02 5.70507 -4.49670 28250 ft 486 kts 125°
2026-05-01 11:03 5.65444 -4.37029 25431 ft 477 kts 88°
2026-05-01 11:04 5.65898 -4.33757 24800 ft 476 kts 76°
2026-05-01 11:04 5.67050 -4.30617 24213 ft 475 kts 64°
2026-05-01 11:04 5.68816 -4.27863 23823 ft 471 kts 52°
2026-05-01 11:04 5.71114 -4.25563 23423 ft 467 kts 40°
2026-05-01 11:05 5.73850 -4.23813 22947 ft 464 kts 28°
2026-05-01 11:05 5.76904 -4.22704 22470 ft 462 kts 15°
2026-05-01 11:05 5.80083 -4.22299 22014 ft 460 kts
2026-05-01 11:05 5.83233 -4.22552 21543 ft 457 kts 353°
2026-05-01 11:06 5.86309 -4.23263 21070 ft 454 kts 343°
2026-05-01 11:06 5.88262 -4.24045 20770 ft 453 kts 335°
2026-05-01 11:06 5.91810 -4.26278 20154 ft 449 kts 326°
2026-05-01 11:07 5.96645 -4.30135 19240 ft 440 kts 322°
2026-05-01 11:07 5.98230 -4.31470 18932 ft 437 kts 322°
2026-05-01 11:07 6.00518 -4.33420 18491 ft 433 kts 322°
2026-05-01 11:07 6.02806 -4.35386 18022 ft 429 kts 321°
2026-05-01 11:08 6.05049 -4.37323 17519 ft 425 kts 321°
2026-05-01 11:08 6.07279 -4.39255 17013 ft 420 kts 321°
2026-05-01 11:08 6.11674 -4.43076 16031 ft 412 kts 321°
2026-05-01 11:09 6.13807 -4.44935 15557 ft 409 kts 321°
2026-05-01 11:09 6.15953 -4.46812 15079 ft 405 kts 321°
2026-05-01 11:09 6.18064 -4.48660 14619 ft 401 kts 321°
2026-05-01 11:10 6.22225 -4.52316 13715 ft 395 kts 321°
2026-05-01 11:10 6.24295 -4.54142 13197 ft 391 kts 321°
2026-05-01 11:10 6.26311 -4.55929 12700 ft 387 kts 321°
2026-05-01 11:10 6.28192 -4.57843 12223 ft 387 kts 308°
2026-05-01 11:11 6.29364 -4.60276 11779 ft 388 kts 286°
2026-05-01 11:11 6.29614 -4.62962 11346 ft 386 kts 264°
2026-05-01 11:11 6.29484 -4.63838 11189 ft 385 kts 257°
2026-05-01 11:12 6.25482 -4.68882 11002 ft 336 kts 211°
2026-05-01 11:12 6.23589 -4.70141 10990 ft 320 kts 209°
2026-05-01 11:12 6.21748 -4.71328 10990 ft 305 kts 208°
2026-05-01 11:12 6.19985 -4.72461 10991 ft 297 kts 208°
2026-05-01 11:13 6.18256 -4.73569 10990 ft 296 kts 208°
2026-05-01 11:13 6.16508 -4.74689 10984 ft 297 kts 208°
2026-05-01 11:13 6.14775 -4.75798 10991 ft 293 kts 208°
2026-05-01 11:13 6.13087 -4.76878 10987 ft 287 kts 207°
2026-05-01 11:14 6.11335 -4.77813 10973 ft 283 kts 201°
2026-05-01 11:14 6.09534 -4.78653 10696 ft 286 kts 199°
2026-05-01 11:14 6.07724 -4.79474 10446 ft 282 kts 198°
2026-05-01 11:14 6.05909 -4.80154 10209 ft 278 kts 193°
2026-05-01 11:15 6.04063 -4.80736 9991 ft 276 kts 191°
2026-05-01 11:15 6.02225 -4.81298 9740 ft 275 kts 191°
2026-05-01 11:15 6.00407 -4.81851 9496 ft 274 kts 191°
2026-05-01 11:15 5.98571 -4.82406 9239 ft 275 kts 191°
2026-05-01 11:16 5.96710 -4.82960 9002 ft 281 kts 191°
2026-05-01 11:16 5.94837 -4.83446 8743 ft 276 kts 180°
2026-05-01 11:16 5.93041 -4.83064 8532 ft 260 kts 142°
2026-05-01 11:16 5.91909 -4.81769 8334 ft 247 kts 109°
2026-05-01 11:17 5.91416 -4.80107 8103 ft 246 kts 102°
2026-05-01 11:17 5.90941 -4.78461 7872 ft 246 kts 106°
2026-05-01 11:17 5.90275 -4.76876 7649 ft 248 kts 115°
2026-05-01 11:17 5.89327 -4.75420 7415 ft 251 kts 123°
2026-05-01 11:18 5.88245 -4.74046 7220 ft 247 kts 124°
2026-05-01 11:18 5.87215 -4.72683 7074 ft 240 kts 122°
2026-05-01 11:18 5.86258 -4.71348 6933 ft 238 kts 122°
2026-05-01 11:18 5.85294 -4.70005 6793 ft 238 kts 122°
2026-05-01 11:19 5.84306 -4.68648 6651 ft 237 kts 122°
2026-05-01 11:19 5.83330 -4.67305 6515 ft 243 kts 122°
2026-05-01 11:19 5.82332 -4.65930 6397 ft 247 kts 122°
2026-05-01 11:19 5.81313 -4.64529 6248 ft 248 kts 123°
2026-05-01 11:20 5.80296 -4.63132 6102 ft 247 kts 123°
2026-05-01 11:20 5.79282 -4.61737 6000 ft 245 kts 123°
2026-05-01 11:20 5.78289 -4.60372 6004 ft 245 kts 123°
2026-05-01 11:20 5.77277 -4.58978 6008 ft 246 kts 123°
2026-05-01 11:21 5.76264 -4.57585 6010 ft 246 kts 123°
2026-05-01 11:21 5.75251 -4.56191 6005 ft 247 kts 123°
2026-05-01 11:21 5.74235 -4.54796 5959 ft 251 kts 123°
2026-05-01 11:21 5.73199 -4.53370 5817 ft 249 kts 123°
2026-05-01 11:22 5.72197 -4.51993 5666 ft 242 kts 123°
2026-05-01 11:22 5.71218 -4.50648 5495 ft 237 kts 124°
2026-05-01 11:22 5.70247 -4.49313 5323 ft 233 kts 123°
2026-05-01 11:22 5.69304 -4.48016 5138 ft 229 kts 124°
2026-05-01 11:23 5.68371 -4.46734 4960 ft 225 kts 124°
2026-05-01 11:23 5.67456 -4.45477 4790 ft 224 kts 124°
2026-05-01 11:23 5.66538 -4.44215 4620 ft 224 kts 124°
2026-05-01 11:23 5.65621 -4.42953 4430 ft 223 kts 124°
2026-05-01 11:24 5.64704 -4.41693 4266 ft 222 kts 124°
2026-05-01 11:24 5.63803 -4.40426 4087 ft 222 kts 120°
2026-05-01 11:24 5.62859 -4.37520 3816 ft 218 kts 101°
2026-05-01 11:25 5.62559 -4.35975 3764 ft 234 kts 100°
2026-05-01 11:25 5.61937 -4.32712 3648 ft 240 kts 100°
2026-05-01 11:25 5.61622 -4.31061 3586 ft 239 kts 100°
2026-05-01 11:26 5.61310 -4.29420 3520 ft 241 kts 100°
2026-05-01 11:26 5.60692 -4.26135 3417 ft 240 kts 100°
2026-05-01 11:26 5.60390 -4.24488 3380 ft 242 kts 100°
2026-05-01 11:27 5.60189 -4.23383 3339 ft 241 kts 100°
2026-05-01 11:27 5.59449 -4.19316 3192 ft 241 kts 100°
2026-05-01 11:27 5.59144 -4.17665 3127 ft 241 kts 100°
2026-05-01 11:28 5.58837 -4.16011 3070 ft 245 kts 100°
2026-05-01 11:28 5.58530 -4.14330 3004 ft 240 kts 101°
2026-05-01 11:28 5.58239 -4.12702 3009 ft 241 kts 100°
2026-05-01 11:29 5.57582 -4.09375 3002 ft 240 kts 102°
2026-05-01 11:29 5.57229 -4.07749 3004 ft 240 kts 102°
2026-05-01 11:29 5.56505 -4.04458 3003 ft 240 kts 102°
2026-05-01 11:30 5.56149 -4.02833 3005 ft 241 kts 102°
2026-05-01 11:30 5.55788 -4.01180 3001 ft 238 kts 102°
2026-05-01 11:30 5.55445 -3.99608 2995 ft 224 kts 102°
2026-05-01 11:30 5.55123 -3.98128 3003 ft 212 kts 102°
2026-05-01 11:31 5.54721 -3.96706 3000 ft 209 kts 110°
2026-05-01 11:31 5.54172 -3.95362 3005 ft 208 kts 112°
2026-05-01 11:31 5.53612 -3.94021 3010 ft 209 kts 112°
2026-05-01 11:31 5.53048 -3.92675 3013 ft 209 kts 114°
2026-05-01 11:32 5.52296 -3.91437 3000 ft 211 kts 129°
2026-05-01 11:32 5.51139 -3.90517 3008 ft 212 kts 149°
2026-05-01 11:32 5.49782 -3.89877 3011 ft 221 kts 154°
2026-05-01 11:32 5.48376 -3.89245 3008 ft 222 kts 154°
2026-05-01 11:33 5.47001 -3.88567 3007 ft 216 kts 151°
2026-05-01 11:33 5.45694 -3.87864 3002 ft 212 kts 150°
2026-05-01 11:33 5.44370 -3.87250 3000 ft 202 kts 160°
2026-05-01 11:33 5.43014 -3.87056 3006 ft 200 kts 176°
2026-05-01 11:34 5.41609 -3.87160 3001 ft 201 kts 189°
2026-05-01 11:34 5.40291 -3.87483 3001 ft 190 kts 193°
2026-05-01 11:34 5.38967 -3.87816 2524 ft 205 kts 193°
2026-05-01 11:34 5.38029 -3.88035 2203 ft 206 kts 188°
2026-05-01 11:35 5.36267 -3.88403 1821 ft 185 kts 199°
2026-05-01 11:35 5.35517 -3.88821 1672 ft 181 kts 206°
2026-05-01 11:35 5.34458 -3.89440 1467 ft 168 kts 204°
2026-05-01 11:35 5.33387 -3.89695 1220 ft 157 kts 177°
2026-05-01 11:36 5.32373 -3.89712 1021 ft 146 kts 199°
2026-05-01 11:36 5.31675 -3.90441 916 ft 148 kts 226°
2026-05-01 11:36 5.30770 -3.90807 822 ft 148 kts 187°
2026-05-01 11:36 5.29739 -3.91174 623 ft 172 kts 197°
2026-05-01 11:37 5.28571 -3.91595 380 ft 175 kts 199°
2026-05-01 11:37 5.27527 -3.92016 102 ft 156 kts 201°
2026-05-01 11:37 5.26584 -3.92403 26 ft 132 kts 202°
2026-05-01 11:37 5.25916 -3.92679 28 ft 67 kts 202°
2026-05-01 11:38 5.25792 -3.92729 27 ft 48 kts 201°
2026-05-01 11:38 5.25469 -3.92927 25 ft 7 kts 289°
2026-05-01 11:38 5.25481 -3.92958 24 ft 0 kts 291°
2026-05-01 11:39 5.25488 -3.92976 27 ft 6 kts 292°
2026-05-01 11:39 5.25507 -3.93035 25 ft 11 kts 270°
2026-05-01 11:39 5.25467 -3.93083 27 ft 9 kts 238°
2026-05-01 11:39 5.25465 -3.93130 27 ft 6 kts 282°
2026-05-01 11:40 5.25471 -3.93151 26 ft 0 kts 287°